パンスターズ彗星

C/2017 K2 ( PanSTARRS )

English version
Home page
Updated on October 9, 2017

---------------------------------------------------------------------

・ プロフィール

発見日 2017年5月21日
発見光度 20.8等
発見者 Pan-STARRS 1 telescope (Haleakala)

・ 写真集

・ 軌道要素

Epoch 2022 Dec. 7.0 TT = JDT 2459920.5
T 2022 Dec. 19.98688 TT                                 MPCW
q   1.7967014            (2000.0)            P               Q
z  -0.0004147      Peri.  236.20854     +0.01818710     +0.04923548
 +/-0.0000490      Node    88.23485     -0.18075349     +0.98249163
e   1.0007451      Incl.   87.56315     -0.98336026     -0.17968322
From 217 observations 2013 May 12-2017 July 5, mean residual 0".4.

・ 星図

・ 光度変化

        m1 = 1.0 + 5 logΔ + 10.0 log r

---------------------------------------------------------------------

軌道要素はM.P.E.C. 2017-N58に掲載されたものです。
星図はステラナビゲータ Ver.10 (アストロアーツ) で作成したものです。
光度グラフはComet for Windowsで作成したものです。

---------------------------------------------------------------------

Copyright(C) Seiichi Yoshida (comet@aerith.net). All rights reserved.